FW8051 Weather Reports


time (UTC)temp
C
wind
direction
speed
KPH
gust
KPH
rain 1hr
cm
rain 24hr
cm
rain mn
cm
humidity
%
barometer
mb
20260508064543 15 260 3.2 6.4 0.00 0.00 0.00 81 1012.6
20260508063055 14 244 4.8 11.3 0.00 0.00 0.00 82 1012.7
20260508061546 13 265 4.8 12.9 0.00 0.00 0.00 84 1012.6
20260508060042 13 285 4.8 12.9 0.00 0.00 0.00 85 1012.5
20260508054539 13 277 4.8 14.5 0.00 0.00 0.00 86 1012.4
20260508053039 13 245 6.4 16.1 0.00 0.00 0.00 88 1012.4
20260508051541 12 307 4.8 16.1 0.00 0.00 0.00 88 1012.4
20260508050045 12 263 12.9 17.7 0.00 0.00 0.00 89 1012.3
20260508044541 12 259 8.0 16.1 0.00 0.00 0.00 89 1012.2
20260508043053 12 255 11.3 16.1 0.00 0.00 0.00 90 1012.2
20260508041546 12 272 11.3 16.1 0.00 0.00 0.00 90 1012.0
20260508040039 12 250 9.7 14.5 0.00 0.00 0.00 90 1011.9
20260508034542 12 262 8.0 14.5 0.00 0.00 0.00 91 1011.9
20260508033040 12 266 9.7 16.1 0.00 0.00 0.00 91 1011.7
20260508031539 12 259 9.7 16.1 0.00 0.00 0.00 91 1011.8
20260508030042 12 241 11.3 16.1 0.00 0.00 0.00 91 1011.9
20260508024535 12 274 12.9 17.7 0.00 0.00 0.00 91 1011.9
20260508023043 12 278 12.9 17.7 0.00 0.00 0.00 92 1011.9
20260508021544 12 257 12.9 16.1 0.00 0.00 0.00 91 1012.1
20260508020046 12 265 12.9 17.7 0.00 0.00 0.00 91 1012.1
20260508014540 12 255 11.3 16.1 0.00 0.00 0.00 91 1012.2
20260508013053 12 262 11.3 16.1 0.00 0.00 0.00 91 1012.2
20260508011544 12 245 11.3 17.7 0.00 0.00 0.00 91 1012.2
20260508010038 12 246 11.3 16.1 0.00 0.00 0.00 91 1012.2
20260508004538 12 292 9.7 16.1 0.00 0.00 0.00 91 1012.4
20260508003036 12 261 9.7 16.1 0.00 0.00 0.00 91 1012.6
20260508001601 12 267 12.9 17.7 0.00 0.00 0.00 91 1012.6
20260508000047 12 238 11.3 17.7 0.00 0.00 0.00 91 1012.8
20260507234538 12 259 11.3 16.1 0.00 0.00 0.00 91 1012.8
20260507233040 12 257 11.3 17.7 0.00 0.00 0.00 91 1013.2
20260507231537 12 274 9.7 19.3 0.00 0.00 0.00 91 1013.4
20260507230041 12 270 11.3 17.7 0.00 0.00 0.00 91 1013.7
20260507224544 12 255 12.9 17.7 0.00 0.00 0.00 90 1013.7
20260507223038 12 259 11.3 17.7 0.00 0.00 0.00 90 1013.6
20260507221537 12 246 9.7 14.5 0.00 0.00 0.00 90 1013.5
20260507220048 12 244 9.7 14.5 0.00 0.00 0.00 90 1013.6
20260507214541 12 263 9.7 16.1 0.00 0.00 0.00 89 1013.6
20260507213040 12 275 9.7 16.1 0.00 0.00 0.00 89 1013.6
20260507211538 13 257 9.7 16.1 0.00 0.00 0.00 89 1013.5
20260507210041 13 254 9.7 14.5 0.00 0.00 0.00 89 1013.6
20260507204545 13 257 8.0 14.5 0.00 0.00 0.00 88 1013.5
20260507203036 13 263 8.0 14.5 0.00 0.00 0.00 88 1013.5
20260507201542 13 281 8.0 14.5 0.00 0.00 0.00 87 1013.4
20260507200041 14 265 8.0 14.5 0.00 0.00 0.00 87 1013.5
20260507194540 14 263 4.8 11.3 0.00 0.00 0.00 86 1013.3
20260507193036 14 265 8.0 12.9 0.00 0.00 0.00 85 1013.3
20260507191550 15 260 8.0 12.9 0.00 0.00 0.00 84 1013.1
20260507190040 15 266 6.4 11.3 0.00 0.00 0.00 82 1013.1
20260507184538 16 277 3.2 9.7 0.00 0.00 0.00 81 1013.0
20260507183043 17 0 0.0 3.2 0.00 0.00 0.00 80 1013.1
20260507181541 17 0 0.0 4.8 0.00 0.00 0.00 80 1013.1
20260507180037 17 193 1.6 6.4 0.00 0.00 0.00 80 1013.2
20260507174547 17 155 4.8 12.9 0.00 0.00 0.00 80 1013.3
20260507173040 17 186 9.7 16.1 0.00 0.00 0.00 79 1013.3
20260507171539 18 143 6.4 11.3 0.00 0.00 0.00 80 1013.3
20260507170046 17 139 6.4 9.7 0.00 0.00 0.00 79 1013.4
20260507164542 17 128 4.8 9.7 0.00 0.00 0.00 79 1013.4
20260507163043 17 138 4.8 9.7 0.00 0.00 0.00 79 1013.3
20260507161541 17 134 6.4 8.0 0.00 0.00 0.00 78 1013.3
20260507160040 17 132 6.4 11.3 0.00 0.00 0.00 78 1013.5
20260507154546 17 134 8.0 12.9 0.00 0.00 0.00 78 1013.5
20260507153046 18 136 8.0 14.5 0.00 0.00 0.00 77 1013.6
20260507151535 17 138 11.3 14.5 0.00 0.00 0.00 77 1013.4
20260507150043 17 137 11.3 17.7 0.00 0.00 0.00 77 1013.6
20260507144539 18 135 12.9 17.7 0.00 0.00 0.00 77 1013.5
20260507143045 18 134 11.3 16.1 0.00 0.00 0.00 77 1013.6
20260507141537 18 135 14.5 16.1 0.00 0.00 0.00 76 1013.7
20260507140043 17 140 12.9 17.7 0.00 0.00 0.00 77 1013.9
20260507134544 18 151 11.3 17.7 0.00 0.00 0.00 76 1014.0
20260507133041 17 134 12.9 16.1 0.00 0.00 0.00 77 1014.4
20260507131553 17 155 11.3 16.1 0.00 0.00 0.00 77 1014.4
20260507130055 17 142 12.9 16.1 0.00 0.00 0.00 76 1014.4
20260507124547 17 136 12.9 17.7 0.00 0.00 0.00 78 1014.5
20260507123037 17 132 12.9 19.3 0.00 0.00 0.00 78 1014.5
20260507121543 17 119 12.9 16.1 0.00 0.00 0.00 78 1014.6
20260507120045 17 132 9.7 12.9 0.00 0.00 0.00 78 1014.5
20260507114543 17 132 8.0 12.9 0.00 0.03 0.00 78 1014.3
20260507113042 17 150 8.0 12.9 0.00 0.03 0.00 79 1014.5
20260507111537 17 148 9.7 16.1 0.00 0.03 0.00 81 1014.6
20260507110036 17 130 11.3 17.7 0.00 0.03 0.00 81 1014.6
20260507104543 17 126 14.5 20.9 0.00 0.03 0.00 81 1014.7
20260507103043 17 124 17.7 20.9 0.00 0.03 0.00 81 1014.7
20260507101540 17 134 16.1 22.5 0.00 0.03 0.00 80 1014.7
20260507100041 17 149 16.1 24.1 0.00 0.03 0.00 80 1014.8
20260507094538 17 142 20.9 27.4 0.00 0.03 0.00 79 1014.5
20260507093049 17 140 19.3 25.7 0.00 0.03 0.00 79 1014.5
20260507091549 17 135 19.3 22.5 0.00 0.03 0.00 78 1014.4
20260507090040 17 121 16.1 20.9 0.00 0.03 0.00 75 1014.1
20260507084539 17 175 8.0 14.5 0.00 0.03 0.00 74 1013.9
20260507083036 18 165 8.0 14.5 0.00 0.03 0.00 74 1013.8
20260507081544 17 100 3.2 6.4 0.00 0.03 0.00 70 1013.9
20260507080044 17 98 4.8 9.7 0.00 0.03 0.00 69 1014.0
20260507074557 17 102 4.8 8.0 0.00 0.03 0.00 68 1014.2
20260507073036 17 148 3.2 6.4 0.00 0.03 0.00 65 1014.4
20260507071543 17 76 3.2 11.3 0.00 0.03 0.00 64 1014.3
20260507070043 17 85 4.8 9.7 0.00 0.03 0.00 65 1014.3